Weather History for Cavalier, ND

Change the Weather History Date:

Sunday, October 14, 2012

  Actual Average (KGAF) Record (KGAF)
Temperature  
Mean Temperature 45 °F -  
Max Temperature 55 °F 56 °F 80 °F (1963)
Min Temperature 35 °F 35 °F 19 °F (1992)
Degree Days  
Heating Degree Days 20    
Moisture  
Dew Point 37 °F    
Average Humidity 84    
Maximum Humidity 100    
Minimum Humidity 54    
Precipitation  
Precipitation 0.01 in - - ()
Sea Level Pressure  
Sea Level Pressure 29.93 in    
Wind  
Wind Speed 8 mph (NNW)    
Max Wind Speed 14 mph    
Max Gust Speed 17 mph    
Visibility 10 miles    
Events Rain    
Averages and records for this station are not official NWS values.
T = Trace of Precipitation, MM = Missing Value Source: NWS Daily Summary

Daily Weather History Graph

Daily Weather History Graph

Search for Another Location

Airport:

Trip Planner

Search our weather history database for the weather conditions in past years. The results will help you decide how hot, cold, wet, or windy it might be!

Date:

Astronomy

Oct. 14, 2012 Rise Set
Actual Time 7:50 AM CDT 6:41 PM CDT
Civil Twilight 7:18 AM CDT 7:13 PM CDT
Nautical Twilight 6:41 AM CDT 7:49 PM CDT
Astronomical Twilight 6:05 AM CDT 8:26 PM CDT
Moon 6:49 AM CDT (10/14) 6:01 PM CDT (10/14)
Length of Visible Light 11h 55m
Length of Day
10h 51m
Waning Crescent, 1% of the Moon is Illuminated
Oct 14
Waning Crescent
Oct 15
New
Oct 21
First Quarter
Oct 29
Full
Nov 6
Last Quarter

Hourly Weather History & Observations

Time (CDT) Temp. Windchill Dew Point Humidity Pressure Visibility Wind Dir Wind Speed Gust Speed Precip Events Conditions
12:15 AM 39.2 °F 33.0 °F 35.6 °F 87% 29.92 in 10.0 mi NNW 9.2 mph - N/A   Clear
12:35 AM 37.4 °F 29.8 °F 35.6 °F 93% 29.92 in 10.0 mi NNW 11.5 mph - N/A   Clear
12:55 AM 37.4 °F 30.8 °F 35.6 °F 93% 29.91 in 10.0 mi NNW 9.2 mph - N/A   Clear
1:15 AM 37.4 °F 29.3 °F 35.6 °F 93% 29.91 in 10.0 mi NNW 12.7 mph - N/A   Clear
1:35 AM 37.4 °F 29.8 °F 35.6 °F 93% 29.91 in 10.0 mi NNW 11.5 mph 17.3 mph N/A   Clear
1:55 AM 37.4 °F 29.8 °F 35.6 °F 93% 29.91 in 10.0 mi NNW 11.5 mph - N/A   Partly Cloudy
2:15 AM 37.4 °F 29.8 °F 35.6 °F 93% 29.91 in 10.0 mi NNW 11.5 mph 16.1 mph N/A   Scattered Clouds
2:35 AM 37.4 °F 30.3 °F 35.6 °F 93% 29.92 in 10.0 mi NNW 10.4 mph - N/A   Partly Cloudy
2:55 AM 37.4 °F 29.8 °F 35.6 °F 93% 29.93 in 10.0 mi NNW 11.5 mph - N/A   Clear
3:15 AM 37.4 °F 30.3 °F 35.6 °F 93% 29.93 in 10.0 mi NNW 10.4 mph - N/A   Clear
3:35 AM 37.4 °F 31.4 °F 35.6 °F 93% 29.93 in 10.0 mi NNW 8.1 mph - N/A   Clear
3:55 AM 35.6 °F 29.2 °F 35.6 °F 100% 29.95 in 10.0 mi NNW 8.1 mph - N/A   Clear
4:15 AM 35.6 °F 29.9 °F 35.6 °F 100% 29.95 in 10.0 mi NW 6.9 mph - N/A   Mostly Cloudy
4:35 AM 37.4 °F 31.4 °F 35.6 °F 93% 29.95 in 10.0 mi NNW 8.1 mph - N/A   Overcast
4:55 AM 37.4 °F 32.1 °F 35.6 °F 93% 29.95 in 10.0 mi NNW 6.9 mph - N/A   Overcast
5:15 AM 37.4 °F 30.8 °F 35.6 °F 93% 29.95 in 10.0 mi NNW 9.2 mph - N/A   Overcast
5:35 AM 37.4 °F 30.8 °F 35.6 °F 93% 29.96 in 10.0 mi NNW 9.2 mph - N/A   Overcast
5:55 AM 37.4 °F 32.1 °F 35.6 °F 93% 29.96 in 10.0 mi North 6.9 mph - N/A   Overcast
6:15 AM 35.6 °F 29.9 °F 35.6 °F 100% 29.96 in 10.0 mi NNW 6.9 mph - N/A   Partly Cloudy
6:35 AM 35.6 °F 30.7 °F 35.6 °F 100% 29.96 in 10.0 mi NNW 5.8 mph - N/A   Scattered Clouds
6:55 AM 35.6 °F 31.7 °F 35.6 °F 100% 29.96 in 10.0 mi NNW 4.6 mph - N/A   Mostly Cloudy
7:15 AM 35.6 °F 30.7 °F 35.6 °F 100% 29.96 in 10.0 mi NNW 5.8 mph - N/A   Overcast
7:35 AM 37.4 °F 30.3 °F 35.6 °F 93% 29.97 in 10.0 mi NNW 10.4 mph - N/A   Overcast
7:55 AM 37.4 °F 32.1 °F 35.6 °F 93% 29.97 in 10.0 mi NNW 6.9 mph - N/A   Overcast
8:15 AM 37.4 °F 31.4 °F 37.4 °F 100% 29.96 in 10.0 mi NNW 8.1 mph - N/A   Overcast
8:35 AM 37.4 °F 28.9 °F 37.4 °F 100% 29.98 in 10.0 mi NNW 13.8 mph - N/A   Overcast
8:55 AM 37.4 °F 30.8 °F 37.4 °F 100% 29.98 in 10.0 mi NNW 9.2 mph - N/A   Overcast
9:15 AM 37.4 °F 29.8 °F 37.4 °F 100% 29.98 in 10.0 mi NNW 11.5 mph - N/A   Overcast
9:35 AM 37.4 °F 30.3 °F 35.6 °F 93% 29.98 in 10.0 mi NNW 10.4 mph - N/A   Overcast
9:55 AM 39.2 °F 33.6 °F 35.6 °F 87% 29.98 in 10.0 mi NNW 8.1 mph - N/A   Overcast
10:15 AM 39.2 °F 31.6 °F 35.6 °F 87% 29.97 in 10.0 mi NNW 12.7 mph - N/A   Overcast
10:35 AM 39.2 °F 33.0 °F 35.6 °F 87% 29.98 in 10.0 mi NW 9.2 mph - N/A   Overcast
10:55 AM 39.2 °F 34.2 °F 35.6 °F 87% 29.97 in 10.0 mi NW 6.9 mph - N/A   Overcast
11:15 AM 39.2 °F 33.6 °F 35.6 °F 87% 29.96 in 10.0 mi NNW 8.1 mph - N/A   Overcast
11:35 AM 39.2 °F 33.6 °F 35.6 °F 87% 29.96 in 10.0 mi NNW 8.1 mph - N/A   Overcast
11:55 AM 41.0 °F 35.8 °F 37.4 °F 87% 29.97 in 10.0 mi North 8.1 mph - N/A   Overcast
12:15 PM 41.0 °F 35.2 °F 37.4 °F 87% 29.97 in 10.0 mi North 9.2 mph - N/A   Overcast
12:55 PM 44.6 °F 40.2 °F 35.6 °F 71% 29.96 in 10.0 mi North 8.1 mph - N/A   Mostly Cloudy
1:15 PM 44.6 °F 41.4 °F 37.4 °F 76% 29.95 in 10.0 mi NNW 5.8 mph - N/A   Partly Cloudy
1:35 PM 46.4 °F 43.5 °F 37.4 °F 71% 29.94 in 10.0 mi NNW 5.8 mph - N/A   Clear
1:55 PM 48.2 °F - 37.4 °F 66% 29.93 in 10.0 mi NNW 5.8 mph - N/A   Clear
2:15 PM 48.2 °F - 37.4 °F 66% 29.93 in 10.0 mi NW 5.8 mph - N/A   Clear
2:35 PM 48.2 °F - 37.4 °F 66% 29.93 in 10.0 mi WNW 5.8 mph - N/A   Clear
3:15 PM 50.0 °F - 37.4 °F 62% 29.92 in 10.0 mi NW 3.5 mph - N/A   Clear
3:35 PM 51.8 °F - 37.4 °F 58% 29.91 in 10.0 mi WNW 6.9 mph - N/A   Clear
3:55 PM 53.6 °F - 37.4 °F 54% 29.91 in 10.0 mi NNW 6.9 mph - N/A   Clear
4:15 PM 53.6 °F - 37.4 °F 54% 29.91 in 10.0 mi North 4.6 mph - N/A   Clear
4:35 PM 53.6 °F - 37.4 °F 54% 29.91 in 10.0 mi Calm Calm - N/A   Clear
4:55 PM 55.4 °F - 39.2 °F 54% 29.90 in 10.0 mi Calm Calm - N/A   Clear
5:15 PM 53.6 °F - 39.2 °F 58% 29.90 in 10.0 mi Calm Calm - N/A   Clear
5:35 PM 53.6 °F - 39.2 °F 58% 29.90 in 10.0 mi Calm Calm - N/A   Clear
5:55 PM 55.4 °F - 39.2 °F 54% 29.90 in 10.0 mi Calm Calm - N/A   Clear
6:15 PM 53.6 °F - 39.2 °F 58% 29.91 in 10.0 mi Calm Calm - N/A   Clear
6:35 PM 50.0 °F - 39.2 °F 66% 29.91 in 10.0 mi East 3.5 mph - N/A   Clear
6:55 PM 48.2 °F - 39.2 °F 71% 29.91 in 10.0 mi ENE 4.6 mph - N/A   Clear
7:15 PM 46.4 °F 45.2 °F 37.4 °F 71% 29.92 in 10.0 mi ENE 3.5 mph - N/A   Scattered Clouds
7:35 PM 46.4 °F 45.2 °F 39.2 °F 76% 29.94 in 5.0 mi North 3.5 mph - N/A Rain Light Rain
7:55 PM 46.4 °F - 42.8 °F 87% 29.94 in 3.0 mi Calm Calm - 0.01 in Rain Light Rain
8:15 PM 44.6 °F 40.2 °F 42.8 °F 93% 29.90 in 8.0 mi SSW 8.1 mph - N/A Rain Light Rain
8:35 PM 46.4 °F 43.5 °F 41.0 °F 81% 29.90 in 10.0 mi ESE 5.8 mph - N/A   Partly Cloudy
8:55 PM 44.6 °F 43.1 °F 41.0 °F 87% 29.90 in 10.0 mi SSW 3.5 mph - N/A   Clear
9:15 PM 44.6 °F 40.7 °F 41.0 °F 87% 29.89 in 10.0 mi SW 6.9 mph - N/A   Clear
9:35 PM 41.0 °F - 39.2 °F 93% 29.90 in 10.0 mi Calm Calm - N/A   Clear
9:55 PM 44.6 °F 41.4 °F 41.0 °F 87% 29.90 in 10.0 mi SW 5.8 mph - N/A   Clear
10:15 PM 44.6 °F 40.7 °F 41.0 °F 87% 29.90 in 10.0 mi SW 6.9 mph - N/A   Clear
10:35 PM 42.8 °F 40.1 °F 41.0 °F 93% 29.90 in 10.0 mi SSE 4.6 mph - N/A   Clear
10:55 PM 39.2 °F 37.0 °F 39.2 °F 100% 29.89 in 10.0 mi SE 3.5 mph - N/A   Clear
11:15 PM 37.4 °F 32.8 °F 37.4 °F 100% 29.89 in 10.0 mi South 5.8 mph - N/A   Clear
11:35 PM 39.2 °F 35.0 °F 39.2 °F 100% 29.88 in 10.0 mi SSW 5.8 mph - N/A   Clear
11:55 PM 39.2 °F 35.9 °F 37.4 °F 93% 29.88 in 10.0 mi SSW 4.6 mph - N/A   Clear